Theta_e
319 317 316 315 315 313 313 313 314 314 315 315 315 315 316 317 318 318 326 328 334 342 349 353 354 353 353 352 350 350 359 354 349 349 350 349 350 348 349 349 350 349 349 350 347
320 317 316 316 315 313 313 312 313 314 314 315 315 315 316 317 318 325 327 323 330 342 355 352 352 351 354 353 353 352 357 351 349 350 349 349 350 351 351 350 350 350 350 348 348
320 317 316 317 317 314 313 312 313 313 314 315 315 315 316 317 324 339 331 329 331 342 351 351 352 352 355 352 350 349 351 349 349 349 350 349 349 350 351 351 351 350 350 349 347
320 317 316 319 319 318 314 313 313 314 314 315 315 315 315 317 335 338 331 322 336 348 350 350 351 352 356 349 348 351 348 348 349 349 350 351 348 349 349 353 350 351 350 348 347
319 317 317 319 319 319 318 315 314 314 315 315 315 315 315 325 332 331 326 328 340 352 350 350 349 348 349 347 349 347 348 348 348 348 349 350 349 352 352 350 349 350 349 347 347
317 317 318 319 320 318 317 317 315 315 315 315 315 315 319 329 338 332 333 333 348 347 347 347 348 347 349 346 344 344 346 346 348 348 348 351 352 352 351 348 350 349 348 347 346
317 318 321 322 322 323 319 315 315 315 315 315 315 315 325 328 334 346 347 347 345 345 345 346 348 348 346 346 345 345 345 344 346 348 350 350 354 355 351 350 350 348 348 347 345
317 319 321 321 322 323 323 317 314 315 314 315 314 316 326 324 337 345 348 346 344 344 344 347 347 346 347 343 347 341 342 342 343 348 348 350 359 354 350 350 350 349 347 347 345
318 318 321 321 322 322 322 324 314 314 314 314 318 327 326 319 334 343 344 344 345 344 343 345 345 345 343 344 341 336 336 336 344 346 347 351 357 353 351 350 350 350 349 348 348
319 318 320 321 322 322 324 326 318 315 314 315 325 323 324 325 339 343 340 341 343 344 344 345 344 344 343 338 336 334 334 334 337 344 346 348 354 353 351 350 351 350 350 350 350
320 318 319 320 322 321 325 326 329 332 323 329 323 327 324 330 338 339 339 342 342 343 342 342 339 340 337 334 333 332 333 333 334 340 344 348 353 354 351 351 350 351 350 351 351
320 319 319 320 322 321 324 331 331 330 332 327 327 328 328 331 333 338 339 339 338 338 337 339 338 337 334 334 334 332 333 334 342 343 345 345 352 353 352 351 351 349 350 349 349
320 320 319 321 322 323 327 332 330 329 332 327 328 328 327 328 328 335 337 336 335 334 335 337 337 336 333 333 332 332 331 330 331 335 341 348 351 353 352 350 350 349 348 348 347
321 321 320 320 324 330 330 330 328 329 332 328 329 329 328 328 329 329 332 332 332 332 333 334 336 333 331 331 331 331 331 331 333 335 339 340 361 354 353 352 350 349 348 347 347
321 322 321 321 329 328 329 326 329 330 332 329 329 327 328 329 328 328 329 330 330 331 334 336 333 331 331 331 330 330 331 333 334 335 336 337 346 351 352 355 352 349 349 347 347
322 322 321 322 323 326 325 327 330 335 330 328 328 328 328 328 328 329 331 331 333 335 335 335 332 332 332 331 331 331 331 334 335 336 336 336 347 351 354 354 352 349 348 349 348
322 322 321 321 329 326 328 330 337 337 330 329 328 329 329 329 330 331 332 333 334 335 334 333 332 332 331 332 333 331 332 334 335 335 340 336 345 342 342 347 349 349 348 347 348
322 323 321 321 326 325 329 335 342 332 334 331 330 329 330 330 331 331 332 333 333 333 332 333 333 332 334 334 333 333 334 334 337 337 337 336 346 346 342 344 344 346 347 347 346
323 323 324 327 326 328 333 339 337 334 333 332 331 329 330 330 330 331 331 332 333 332 332 334 336 334 333 333 334 335 334 334 332 334 339 340 342 344 343 343 344 344 345 345 345
323 329 331 329 329 331 336 335 336 334 334 333 333 332 331 330 330 330 331 332 331 332 333 334 334 335 334 333 333 333 334 333 333 335 336 340 341 349 348 346 346 346 343 343 344
327 329 332 331 331 334 337 336 335 333 333 334 334 334 334 333 331 331 332 332 332 332 332 333 334 335 336 335 335 334 334 333 334 334 334 336 345 340 346 346 345 343 340 342 345
334 332 334 332 334 332 335 336 332 334 332 333 333 333 334 334 333 332 332 334 333 332 332 334 334 334 335 335 333 332 333 335 335 336 337 334 341 342 340 343 343 344 344 346 348
332 332 335 332 333 334 335 335 334 334 334 334 333 333 334 334 335 335 335 333 332 333 335 335 334 335 335 334 334 333 334 333 334 334 334 338 345 341 342 346 345 345 348 351 351
332 334 334 332 332 336 337 336 335 334 335 334 334 334 334 333 334 335 334 334 333 333 331 332 333 334 334 335 335 335 333 333 333 334 334 335 342 343 342 346 347 346 348 350 350
332 334 332 337 334 333 334 336 336 335 334 335 335 334 334 334 334 334 333 334 333 331 332 334 334 334 334 333 332 332 332 333 333 334 335 334 336 335 341 345 346 347 347 349 350
331 331 332 331 332 335 329 333 334 335 336 337 336 336 334 334 335 336 334 334 334 334 333 333 333 333 334 332 332 332 331 332 332 333 333 334 334 334 341 344 346 344 346 347 350
325 328 331 332 332 331 332 335 336 336 336 335 337 337 337 337 337 337 336 334 334 334 334 333 333 334 335 334 334 334 333 332 332 332 332 333 334 334 340 343 343 344 342 348 351
Wind_Speed
15 11 10 9 8 8 8 9 9 10 11 12 14 12 11 10 9 10 4 7 7 9 12 11 10 7 5 5 11 3 3 2 11 11 10 8 6 7 4 9 5 5 1 21 32
15 10 8 7 7 6 5 6 7 8 10 11 13 12 10 10 10 11 14 8 7 12 14 9 11 11 10 6 6 10 4 17 13 13 9 8 7 9 7 9 6 7 13 27 33
16 9 6 5 5 5 4 4 5 6 7 9 10 10 8 6 8 4 8 11 11 10 11 8 6 7 8 10 7 5 7 6 8 9 6 4 3 7 11 4 6 12 20 29 33
15 9 5 4 5 4 3 1 2 4 6 7 8 8 6 5 3 4 2 11 13 14 11 7 6 4 16 9 5 6 4 6 5 6 1 3 6 2 10 9 3 16 21 27 32
14 7 5 4 4 4 3 1 1 2 4 6 7 7 6 7 2 5 6 13 15 12 11 10 17 17 14 10 5 6 6 2 3 2 7 2 3 9 7 4 4 13 20 27 29
12 6 4 4 5 4 3 1 1 2 3 5 6 7 6 13 1 4 11 14 10 11 10 10 14 14 15 5 9 6 2 2 5 5 3 4 8 5 6 7 10 15 20 24 25
10 5 4 5 5 6 5 3 1 3 4 6 6 8 8 1 6 6 14 13 8 8 9 8 11 13 16 9 6 1 5 7 7 7 7 10 8 9 8 10 13 15 19 20 23
8 3 3 4 5 6 5 5 3 4 5 6 6 8 3 7 6 11 12 11 8 8 8 8 11 17 18 12 13 9 10 7 5 8 6 13 9 8 8 10 12 17 17 19 19
9 3 3 3 4 6 5 5 5 5 5 7 6 6 7 7 10 12 11 9 8 7 9 11 13 18 17 18 10 5 7 8 11 8 7 10 10 11 11 11 13 13 16 19 17
11 4 3 3 4 6 4 5 7 9 9 8 5 7 8 13 13 13 11 8 9 7 11 13 19 16 12 7 11 6 6 4 8 10 7 5 11 13 13 13 14 15 16 18 20
13 5 4 3 3 3 2 4 2 3 10 7 19 4 14 11 12 13 11 9 10 10 16 12 10 10 10 9 6 5 7 5 9 5 5 7 13 12 13 13 15 17 17 19 20
14 6 5 4 4 4 4 5 8 4 5 9 3 2 7 14 12 13 12 12 16 15 17 9 15 6 4 7 10 8 8 10 10 9 3 2 14 14 14 14 16 17 19 20 21
14 7 6 6 6 10 7 9 8 4 6 9 9 10 10 12 14 19 16 17 15 14 16 14 13 8 7 11 7 12 7 9 8 5 11 14 8 10 15 14 15 16 18 21 23
15 7 5 6 5 3 6 4 6 4 5 10 10 7 9 11 7 12 18 18 12 14 13 11 8 4 10 9 8 10 6 6 8 12 8 14 5 15 15 13 13 18 20 23 24
17 8 7 9 5 5 5 6 4 3 3 13 11 10 12 15 13 12 12 13 16 13 10 13 8 6 11 9 7 10 5 10 10 13 7 13 8 14 19 18 18 20 23 22 25
19 8 9 11 13 11 8 8 3 8 5 9 10 11 11 14 7 12 13 10 10 8 12 12 8 8 9 7 5 8 14 15 12 13 11 5 13 10 17 15 18 21 22 22 24
20 7 9 11 3 5 6 6 8 7 8 10 15 15 17 10 12 14 14 15 11 15 15 18 15 4 6 13 10 11 18 7 6 5 4 5 12 4 12 20 18 19 21 22 20
17 5 9 13 8 7 6 10 14 5 6 5 7 13 8 15 16 14 14 14 14 12 7 11 11 15 8 7 12 11 14 4 5 3 4 1 11 2 16 10 22 18 17 17 17
13 3 6 7 9 7 10 11 5 8 4 7 9 10 10 9 3 13 12 14 11 11 13 3 7 6 2 6 9 5 8 12 12 10 8 4 11 16 15 16 16 15 13 12 11
7 7 7 6 8 6 10 16 2 5 2 6 12 11 14 15 10 11 13 5 5 5 11 6 9 4 10 8 11 13 10 8 6 3 6 9 15 12 7 18 16 18 18 13 11
2 8 7 5 6 11 11 13 5 6 5 8 10 5 10 8 12 13 7 9 2 6 8 15 12 6 11 3 11 7 10 8 8 8 9 5 4 4 20 16 18 18 14 19 12
4 7 4 7 11 15 14 15 3 10 9 10 7 16 6 5 12 14 8 3 4 4 11 9 12 10 7 9 4 10 16 14 8 1 14 4 3 24 35 16 19 22 17 16 13
8 12 3 8 11 12 16 6 9 9 12 9 9 9 7 9 7 7 2 8 5 6 7 5 10 11 11 14 11 9 1 12 12 13 6 5 2 11 6 14 16 21 17 16 14
7 5 10 12 16 13 15 12 15 10 12 8 11 8 9 11 8 6 7 7 7 8 5 5 15 17 10 10 11 1 4 6 14 10 7 3 16 16 9 11 7 18 17 16 15
3 2 5 4 6 9 11 12 12 12 12 6 11 15 14 14 13 10 12 13 8 5 8 9 17 14 5 4 7 11 10 9 11 14 14 11 10 4 9 14 11 13 15 15 14
8 7 9 16 11 9 8 14 15 15 4 12 12 12 8 13 13 10 10 9 8 12 13 13 15 8 8 12 10 11 12 13 14 14 14 14 13 11 17 11 8 9 15 16 14
11 7 9 8 11 9 9 8 5 6 13 10 7 9 15 6 8 11 16 18 14 8 12 14 10 9 11 12 8 10 13 15 15 15 15 14 10 6 8 5 8 11 16 18 15
Wind_Direction
333 321 314 308 306 296 281 259 249 242 240 239 242 246 251 258 266 280 282 240 219 181 138 157 170 191 195 248 264 354 229 30 52 69 117 144 130 152 63 132 136 153 77 153 159
341 329 321 319 320 310 290 263 245 235 233 235 237 244 250 264 281 268 251 239 214 179 153 169 190 187 195 182 241 241 242 47 10 28 58 144 157 118 170 150 145 152 108 144 156
347 339 335 333 335 332 310 274 246 224 224 231 233 237 243 270 291 159 246 246 183 166 176 207 212 221 234 198 130 351 21 30 48 28 12 44 150 174 207 174 172 142 142 154 160
351 347 344 343 340 349 346 300 239 208 200 220 224 227 221 217 276 310 286 156 165 159 201 228 217 332 263 122 121 178 30 24 39 52 37 307 55 17 14 25 119 144 157 162 164
356 358 358 358 355 349 346 356 180 179 185 206 215 209 181 225 306 334 154 153 159 170 210 251 282 342 8 23 142 2 69 193 133 10 18 94 85 68 46 8 155 143 159 167 171
4 19 30 43 38 28 6 359 121 148 168 189 200 193 181 236 68 305 150 158 175 193 235 270 317 329 293 342 15 358 6 19 153 163 115 130 117 223 80 92 119 150 161 167 170
11 40 63 51 46 39 38 43 118 148 163 175 184 182 226 130 163 173 168 167 194 209 252 277 303 308 332 323 50 5 222 139 157 160 141 134 144 85 102 122 134 145 153 165 171
14 33 42 38 39 37 38 53 101 130 150 161 167 159 193 175 174 171 170 187 204 227 251 265 290 295 263 278 238 227 228 124 106 153 144 219 107 121 132 135 136 146 152 165 173
5 1 11 23 21 24 38 76 86 122 143 139 125 171 179 173 183 179 182 196 205 228 249 265 285 270 276 240 193 18 44 63 133 201 147 240 121 149 148 137 147 158 162 171 182
356 334 328 347 7 19 65 103 95 106 126 128 173 224 212 202 167 179 193 216 202 234 253 248 245 254 276 334 34 353 34 35 86 134 218 171 112 156 163 148 157 163 174 180 192
354 319 291 300 330 1 112 120 133 188 216 281 163 284 135 150 171 186 193 206 229 223 270 189 288 272 24 32 312 316 321 111 78 110 232 173 137 160 171 161 158 166 175 186 190
349 320 274 267 283 295 266 233 3 329 177 191 183 222 165 175 181 189 191 218 217 251 247 234 244 41 330 303 290 284 279 91 131 143 194 220 138 161 179 178 169 171 179 181 178
348 322 268 254 274 285 266 258 320 282 238 168 184 185 174 196 212 188 200 215 258 244 257 269 307 358 287 280 301 294 21 6 330 207 215 155 119 167 177 184 174 179 181 181 181
346 318 257 235 286 253 268 261 302 269 224 139 169 153 167 207 211 176 200 226 227 252 245 258 270 300 274 293 292 308 11 290 274 273 208 229 139 205 186 188 188 188 189 186 189
340 311 247 219 222 262 281 303 293 223 209 163 138 144 181 227 122 186 196 214 258 210 249 198 217 275 298 313 327 306 319 277 284 257 201 196 119 160 170 180 190 200 193 193 192
335 305 240 230 247 252 288 288 273 236 109 149 145 184 191 219 178 143 186 227 263 279 218 285 292 282 286 297 256 297 262 238 220 243 229 146 118 289 173 171 185 195 195 198 195
332 298 230 218 230 240 263 271 234 256 154 143 172 167 209 175 146 172 191 198 223 201 201 212 225 174 247 251 208 227 244 260 252 202 158 263 48 228 110 142 180 184 194 194 198
334 286 215 214 232 251 268 246 256 66 198 105 168 182 214 158 164 194 178 210 229 280 277 219 157 196 165 282 338 322 315 286 184 333 322 57 130 311 122 109 149 160 173 177 190
334 272 211 241 223 234 256 244 242 179 88 188 166 193 182 184 240 200 219 220 200 202 267 170 151 154 151 306 292 292 261 356 308 186 104 347 152 139 146 146 133 118 120 136 174
332 231 201 225 210 206 250 260 359 2 284 255 223 214 187 179 199 201 189 205 187 230 280 351 260 153 139 236 232 276 349 266 263 195 279 166 228 148 139 150 138 120 119 123 132
322 237 181 194 191 231 245 250 143 174 242 254 283 201 281 163 191 218 227 128 232 182 252 282 275 165 220 241 356 311 237 232 310 330 313 271 59 157 178 171 129 128 133 127 138
277 246 170 189 225 233 242 260 45 257 199 261 273 289 286 201 208 252 234 176 108 200 214 238 322 290 314 67 306 269 281 302 272 23 290 330 214 131 280 126 144 119 127 123 125
302 287 227 203 243 242 230 244 232 255 239 251 248 243 225 252 261 275 234 79 185 242 335 283 246 266 281 161 170 244 60 285 293 311 324 343 59 308 56 117 138 126 131 135 135
294 265 189 219 257 283 292 205 227 196 281 276 273 290 263 249 243 262 233 144 216 246 56 291 278 286 295 12 345 61 215 288 299 287 300 270 154 207 153 133 133 131 146 148 143
269 44 342 280 206 277 292 277 280 234 215 219 247 253 250 248 236 220 247 137 193 154 220 243 266 285 288 291 282 298 299 290 281 300 312 340 351 90 143 150 158 150 156 153 148
340 342 339 283 284 259 233 251 247 261 253 263 225 275 267 277 287 294 239 220 202 171 238 236 259 285 268 281 251 259 268 272 272 273 280 285 287 297 106 114 153 197 173 169 146
351 322 287 280 268 251 266 283 287 339 272 272 332 307 256 319 349 311 308 309 299 222 217 243 249 249 262 283 289 254 257 256 255 261 268 261 274 349 113 152 183 196 193 162 155